Location: R�o Medio
(42.4667°N, 3.0167°W)
Time: 16:59:16
(UTC+00:00)

Cosmos 1939 Rocket - Pass Details

Date: 27 February 2020
Orbit: 532 x 585 km, 97.4° (Epoch: 07 April)

Event Time Altitude Azimuth Distance (km) Brightness Sun altitude
Rises 19:02:23 0° 174° (S) 2,791 6.4 -12.5°
Reaches altitude 10° 19:04:33 10° 177° (S) 1,899 5.5 -12.9°
Maximum altitude 19:08:38 63° 259° (W) 655 3.4 -13.7°
Drops below altitude 10° 19:12:46 10° 341° (NNW) 1,915 5.8 -14.4°
Sets 19:14:57 0° 345° (NNW) 2,817 6.7 -14.8°
